Regional Weather Roundup
Issued by NWS

Home | Current Version | Previous Version | Text Only | Print | Product List | Glossary Off
Versions: 1 2 3 4 5 6 7 8 9 10 11 12 13 14 15 16 17 18 19 20 21 22 23 24 25 26 27 28 29 30 31 32 33 34 35 36 37 38 39 40 41 42 43 44 45 46 47 48 49 50

000
ASUS43 KMKX 290121
RWRWI

WISCONSIN REGIONAL WEATHER ROUNDUP
NATIONAL WEATHER SERVICE MILWAUKEE/SULLIVAN WI
800 PM CDT THU AUG 28 2014

NOTE: "FAIR" INDICATES FEW OR NO CLOUDS BELOW 12,000 FEET WITH NO
SIGNIFICANT WEATHER AND/OR OBSTRUCTIONS TO VISIBILITY.

WIZ001-002-006>008-014>016-023>028-290200-
NORTHWEST WISCONSIN

CITY           SKY/WX    TMP DP  RH WIND       PRES   REMARKS
SUPERIOR ARPT  CLOUDY    61  58  88 NE5       29.99S
ASHLAND        MOCLDY    60  56  86 NE3       30.02S
HAYWARD        CLOUDY    66  60  81 S6        30.01S
SIREN          DRIZZLE   66  61  84 SE6       29.99F
RICE LAKE      DRIZZLE   65  62  91 SE12      30.02S
LADYSMITH      CLOUDY    66  62  86 SE7       30.04F
EAU CLAIRE     LGT RAIN  66  64  93 E7        30.00S
MENOMONIE      DRIZZLE   66  64  95 E7        30.00S
NEW RICHMOND   CLOUDY    65  63  93 E9        29.98F
OSCEOLA        CLOUDY    66  65  99 E8        30.00S
$$

WIZ003>005-009-010-017-018-290200-
NORTH CENTRAL WISCONSIN

CITY           SKY/WX    TMP DP  RH WIND       PRES   REMARKS
WOODRUFF       CLOUDY    65  58  77 S6        30.06S
RHINELANDER    CLOUDY    64  59  83 S3        30.07S
EAGLE RIVER    CLOUDY    63  56  77 S3        30.06S
LAND O LAKES   CLOUDY    64  57  78 CALM      30.06S
PHILLIPS       CLOUDY    65  60  83 SE3       30.04S
TOMAHAWK       CLOUDY    63  60  89 SE3       30.06F
MEDFORD        DRIZZLE   63  62  96 SE5       30.05S
MERRILL        RAIN      64  62  94 SE7       30.06S
$$

WIZ029-030-035-036-043>047-290200-
CENTRAL WISCONSIN

CITY           SKY/WX    TMP DP  RH WIND       PRES   REMARKS
WAUSAU         LGT RAIN  64  62  93 SE7       30.05R
MOSINEE        LGT RAIN  63  63 100 SE7       30.07R
MARSHFIELD     LGT RAIN  65  64  97 SE6       30.05R FOG
STEVENS POINT  CLOUDY    62  59  91 SE7       30.06S
WAUPACA        LGT RAIN  65  61  87 SE6       30.08S
WAUTOMA        RAIN      64  59  84 SE7       30.07R
WISC RAPIDS    LGT RAIN  65  61  87 SE9       30.06R
CAMP DOUGLAS   CLOUDY    65  65 100 E9        30.01F
$$

WIZ011>013-019>022-031-037>040-048>050-290200-
NORTHEAST WISCONSIN

CITY           SKY/WX    TMP DP  RH WIND       PRES   REMARKS
ANTIGO         DRIZZLE   62  60  95 SE6       30.08S
STURGEON BAY   CLOUDY    63  54  72 SE6       30.10S
GREEN BAY      CLOUDY    63  56  78 S5        30.08S
MANITOWOC      LGT RAIN  65  58  78 SE5       30.10S
APPLETON       LGT RAIN  63  55  77 SE8       30.09S
CLINTONVILLE   LGT RAIN  63  57  82 SE6       30.07S
OSHKOSH        LGT RAIN  64  55  72 SE6       30.07F
$$

WIZ032>034-041-042-053>061-290200-
SOUTHWEST WISCONSIN

CITY           SKY/WX    TMP DP  RH WIND       PRES   REMARKS
LA CROSSE      LGT RAIN  67  64  90 E8        29.96S
SPARTA         RAIN      65  64  94 NE5       30.01R
VIROQUA        CLOUDY    65  65 100 SE9       29.98F
BOSCOBEL       CLOUDY    72  61  68 E6        29.97F
PRAIRIE DU CHI CLOUDY    71  61  70 SE7       29.96S
PLATTEVILLE    CLOUDY    69  62  79 SE14      30.00S
$$

WIZ056-057-062-063-064-067-068-290200-
SOUTH CENTRAL WISCONSIN

CITY           SKY/WX    TMP DP  RH WIND       PRES   REMARKS
BARABOO/DELLS  CLOUDY    65  57  74 E9        30.03F
LONE ROCK      CLOUDY    74  61  63 E10       30.00F
WATERTOWN      CLOUDY    64  55  73 E5        30.05F
MADISON        CLOUDY    67  54  63 E9        30.04S
MIDDLETON      MOCLDY    69  55  61 SE9       30.03F
MONROE         CLOUDY    66  57  72 E10G16    30.02F
JANESVILLE     CLEAR     68  55  64 SE6       30.04S
$$

WIZ051-052-058>065-066-070>072-290200-
SOUTHEAST WISCONSIN

CITY           SKY/WX    TMP DP  RH WIND       PRES   REMARKS
MILWAUKEE      CLOUDY    67  56  67 E8        30.07S
WAUKESHA       MOCLDY    63  55  77 E7        30.08F
MILWAUKEE/TIMM PTCLDY    66  54  63 E3        30.08S
RACINE         CLOUDY    68  57  68 E7        30.08S
BURLINGTON     CLOUDY    64  58  81 E5        30.06S
KENOSHA        CLOUDY    66  60  81 E7        30.06S
FOND DU LAC    LGT RAIN  64  53  67 SE6       30.07F
SHEBOYGAN      CLOUDY    63  56  78 CALM      30.09S
WEST BEND      CLOUDY    63  54  72 CALM      30.08S
JUNEAU         LGT RAIN  63  52  67 E5        30.07F
$$

LSZ147-162-290200-
LAKE SUPERIOR

STATION/POSITION TIME  TEMP    WIND        PRES    WAVE
                       AIR SEA DIR/SP/G            HT/PER
                 (UTC) (F)     (DEG/KT/KT) (MB)    (FT/S)
W MID LAKE BUOY  0050   60 58   90/  6/  8 1016.3F   0
DEVILS ISLAND    0100   62     110/  8/  9 1016.0F
PORT WING        0000   68     120/  4/  8 1015.9S
SAXON HARBOR     0000   66        CALM     1016.3S
$$

LMZ867-665-643>646-290200-
LAKE MICHIGAN

STATION/POSITION TIME  TEMP    WIND        PRES    WAVE
                       AIR SEA DIR/SP/G            HT/PER
                 (UTC) (F)     (DEG/KT/KT) (MB)    (FT/S)
N MID LAKE BUOY  0050   64 66  120/  6/  8 1019.5F   0
NORTHPORT PIER   0000   64     130/  9/ 12 1019.3S
SISTER BAY       0011   64      CALM  /  3   N/A
ALGOMA LAKESHORE 2308          190/  8/ 10   N/A
KEWAUNEE LAKESHO 0100   65     130/  6/  7 1018.0F
SHEBOYGAN LAKESH 0100   66 68   80/  6/  7 1019.0F
ATWATER BUOY     0100   69     110/ 10/ 12 1019.2F
MILWAUKEE LAKESH 0100   68     100/  9/  9   N/A
S MID LAKE BUOY  0050   69 69   60/ 12/ 14 1018.1F
KENOSHA   LAKESH 0100   69     100/  9/ 12 1017.6S
$$

TC  - TEMPERATURE IN CELSIUS
VSB - VISIBILITY IN STATUTE MILES
WCI - WIND CHILL INDEX
HX  - HEAT INDEX



USA.gov is the U.S. government's official web portal to all federal, state and local government web resources and services.